Regional Weather Roundup
Issued by NWS Northern Indiana

Home | Current Version | Previous Version | Text Only | Print | Product List | Glossary Off
Versions: 1 2 3 4 5 6 7 8 9 10 11 12 13 14 15 16 17 18 19 20 21 22 23 24 25 26 27 28 29 30 31 32 33 34 35 36 37 38 39 40 41 42 43 44 45 46 47 48 49 50

000
ASUS43 KIWX 021600
RWRIWX

KIWX WEATHER ROUNDUP
NATIONAL WEATHER SERVICE NORTHERN INDIANA
1200 PM EDT TUE JUN 02 2015

NOTE: "FAIR" INDICATES FEW OR NO CLOUDS BELOW 12,000 FEET WITH NO
SIGNIFICANT WEATHER AND/OR OBSTRUCTIONS TO VISIBILITY.

* THESE STATIONS ARE NOT UNDER NWS QUALITY CONTROL. THEY ALSO MAY NOT
  REPORT WEATHER SUCH AS PRECIPITATION OR FOG.

INZ001>027-021700-
NORTHERN INDIANA

CITY           SKY/WX    TMP DP  RH WIND       PRES   REMARKS
GARY*          MOSUNNY   64  52  63 E5        30.19F
SOUTH BEND     MOSUNNY   65  47  52 SE10      30.20F
ELKHART*       SUNNY     63  46  55 CALM      30.20F
GOSHEN         SUNNY     65  50  58 E5        30.19F
ANGOLA*        SUNNY     64  55  72 SE10      30.19F
FORT WAYNE     MOSUNNY   63  51  65 E14       30.19F
PERU/GRISSOM   SUNNY     63  51  65 NE7       30.16F

$$
INZ028>050-021700-
CENTRAL INDIANA

CITY           SKY/WX    TMP DP  RH WIND       PRES   REMARKS
LAFAYETTE      MOSUNNY   63  52  67 E8        30.16F
KOKOMO*        PTSUNNY   61  52  72 NE10      30.17F
MUNCIE*        CLOUDY    57  50  77 E10       30.18S
INDIANAPOLIS   MOSUNNY   63  50  62 VRB6      30.15F

$$
MIZ043>046-050>051-056>058-064>065-071>073-077>080-021700-
SOUTHWEST LOWER MICHIGAN

CITY           SKY/WX    TMP DP  RH WIND       PRES   REMARKS
BATTLE CREEK   SUNNY     65  46  50 VRB3      30.22S
BENTON HARBOR  SUNNY     61  48  62 VRB5      30.20F
COLDWATER*     SUNNY     64  48  56 NE5       30.20S
HILLSDALE*     MOSUNNY   64  48  55 E6        30.21R
HOLLAND        SUNNY     64  41  42 VRB6      30.23S
GRAND RAPIDS   SUNNY     63  43  48 CALM      30.22F
KALAMAZOO      SUNNY     66  46  48 E7        30.22S
STURGIS*       SUNNY     64  48  55 E9        30.19F
THREE RIVERS*  FAIR      64  47  54 E6        30.21F

$$
OHZ001>008-015>018-024>025-021700-
NORTHWEST OHIO

CITY           SKY/WX    TMP DP  RH WIND       PRES   REMARKS
DEFIANCE       PTSUNNY   63  50  62 E10       30.20F
FINDLAY        PTSUNNY   64  51  62 E14G23    30.17S
TOLEDO EXPRESS MOSUNNY   65  49  56 E13       30.19F
TOLEDO METCALF MOSUNNY   63  50  62 NE10      30.21S
LIMA           CLOUDY    59  51  75 NE12      30.18F

$$
AND FOR LAKE MICHIGAN COASTAL AND OPEN LAKE BUOY OBSERVATIONS

STATION/POSITION TEMP    WIND        PRES    VSBY  WAVE
                 AIR SEA DIR/SP/G                  HT/PER
                 (F)     (DEG/KT/KT) (MB)    (MI)  (FT/S)
CALUMET HARBOR    53      40/  5/  7   N/A
MICHIGAN CITY     58     320/  8/  8   N/A
BURNS HARBOR              10/  6/  8 1023.0S
SAINT JOSEPH      55     360/  3/  4 1023.0F
SOUTH LAKE BUOY   42 39  120/  6/  8 1023.5F         1
4 MI NW BRIDGMAN  54 56  340/  8/  8   N/A           1
MICHIGAN CITY     53 56  360/  6/  8   N/A           1/ 4

$$
&&



USA.gov is the U.S. government's official web portal to all federal, state and local government web resources and services.